Probability
4 4 4 2 1 0 0 0 0 0 0 0 0 0 0 0 0 0 0 1 1 1 0 1 2 2 2 3 3 3 3 2 1 0 0 0 1 2 2 3 4 4 5 6 6 6 6 6 6
4 4 3 2 1 0 0 0 0 0 0 0 0 0 0 0 0 0 0 1 2 2 1 1 2 3 3 3 3 3 3 2 1 0 0 1 3 3 3 4 4 4 5 5 6 6 6 6 6
3 3 2 1 0 0 0 0 0 0 0 0 0 0 0 0 0 0 0 1 3 3 3 3 3 3 3 4 4 4 3 2 1 1 1 2 3 3 4 5 5 4 4 4 4 4 4 5 5
3 2 1 0 0 0 0 0 0 0 0 0 0 0 0 0 0 0 0 1 2 4 4 4 3 3 4 5 5 5 4 3 3 2 2 2 2 2 3 5 5 5 4 4 3 3 3 4 4
2 1 0 0 0 0 0 0 0 0 0 0 0 0 0 0 0 0 0 1 2 3 4 3 3 4 5 6 5 5 5 5 5 3 3 3 3 2 2 3 4 4 5 4 2 1 3 5 5
1 0 0 0 0 0 0 0 0 0 0 0 0 0 0 0 0 0 0 0 1 2 3 3 3 4 5 6 6 6 6 6 6 4 4 4 4 3 1 2 3 4 5 4 1 1 3 5 5
0 0 0 0 0 0 0 0 0 0 0 0 0 0 0 0 0 0 0 0 0 1 2 3 3 3 4 6 6 6 6 6 5 4 4 5 5 3 1 1 2 3 4 3 1 1 2 3 3
0 0 0 0 0 0 0 0 0 0 0 0 0 0 0 0 0 0 0 0 0 0 1 1 2 2 3 4 6 6 6 5 4 4 5 6 5 4 2 1 2 3 3 3 1 0 1 1 1
0 0 0 0 0 0 0 0 0 0 0 0 0 0 0 0 0 0 0 0 0 0 0 0 1 1 1 2 3 5 5 4 4 5 5 5 4 4 3 2 3 3 3 2 1 0 0 0 0
0 0 0 0 0 0 0 0 0 0 0 0 0 0 0 0 0 0 0 0 0 0 0 0 0 0 0 0 1 2 3 3 3 3 3 3 3 2 2 2 3 3 2 1 1 0 0 0 0
0 0 0 0 0 0 0 0 0 0 0 0 0 0 0 0 0 0 0 0 0 0 0 0 0 0 0 0 0 0 1 2 1 1 1 1 1 1 1 1 2 1 1 0 0 0 0 0 0
0 0 0 0 0 0 0 0 0 0 0 0 1 1 0 0 0 0 0 0 0 0 0 0 0 0 0 0 0 0 0 0 0 0 0 0 0 0 0 0 0 0 0 0 0 0 0 0 0
0 0 0 0 0 0 0 0 0 0 0 1 2 2 1 0 0 0 0 0 0 0 0 0 0 0 0 0 0 0 0 0 0 0 0 0 0 0 0 0 0 0 0 0 0 0 0 0 0
0 0 0 0 0 0 0 0 0 0 0 1 2 3 2 1 0 0 0 0 0 0 0 0 0 0 0 0 0 0 0 0 0 0 0 0 0 0 0 0 0 0 0 0 0 0 0 0 0
0 0 0 0 0 0 0 0 0 0 0 0 1 3 2 1 0 0 0 0 0 0 0 0 0 0 0 0 0 0 0 0 0 0 0 0 0 0 0 0 0 0 0 0 0 0 0 0 0
0 0 0 0 0 0 0 0 0 0 0 0 1 2 2 1 0 0 0 0 0 0 0 0 0 0 0 0 0 0 0 0 0 0 0 0 0 0 0 0 0 0 0 0 0 0 0 0 0
0 0 0 0 0 0 0 0 0 0 0 0 0 1 2 1 0 0 0 0 0 0 1 0 0 0 0 0 0 0 0 0 0 0 0 0 0 0 0 0 0 0 0 0 0 0 0 0 0
0 0 0 0 0 0 0 0 0 0 0 0 0 1 2 1 0 0 0 0 0 0 0 0 0 0 0 0 0 0 0 0 0 0 0 0 0 0 0 0 0 0 0 0 0 0 0 0 0
0 0 0 0 0 0 0 0 0 0 0 0 0 1 2 2 1 1 1 1 0 0 0 0 0 0 0 0 0 0 0 0 0 0 0 0 0 0 0 0 0 0 0 0 0 0 0 0 0
0 0 0 0 0 0 0 0 0 0 0 0 0 1 2 3 3 2 1 1 1 0 0 0 0 0 0 0 0 0 0 0 0 0 0 0 0 0 0 0 0 0 0 0 0 0 0 0 0
0 0 0 0 0 0 0 0 0 0 0 0 0 1 2 3 3 3 3 3 2 2 2 1 0 0 0 0 0 0 0 0 0 0 0 0 0 0 0 0 0 0 0 0 0 0 0 0 0
0 0 0 0 0 0 0 0 0 0 0 1 0 0 2 2 2 3 5 4 3 3 3 3 1 0 0 0 0 0 0 0 0 0 0 0 0 0 0 0 0 0 0 0 0 0 0 0 0
0 0 0 0 0 0 0 0 0 0 0 0 0 0 2 2 2 4 7 6 4 3 3 3 2 0 0 1 0 0 0 0 0 0 0 0 0 0 0 0 0 0 0 0 0 0 0 0 0
0 0 0 0 0 0 0 0 0 0 0 0 0 0 1 2 3 5 8 7 5 4 4 3 2 1 1 1 0 0 0 0 0 0 0 0 0 0 0 0 0 0 0 0 0 0 0 0 0
0 0 0 0 0 0 0 0 0 0 0 0 0 0 1 3 5 6 8 9 7 5 5 4 3 2 2 1 1 0 0 0 0 0 0 0 0 0 0 0 0 0 0 0 0 0 0 0 0
0 0 0 0 0 0 0 0 0 0 0 0 0 0 1 4 7 7 8 9 9 7 6 5 3 3 3 3 2 1 1 1 0 0 0 0 0 0 0 0 0 0 0 0 0 0 0 0 0
0 0 0 0 0 0 0 0 0 0 0 0 0 0 1 4 7 7 8 9 9 8 7 6 4 2 2 2 2 2 2 2 1 1 1 1 0 0 0 0 0 0 0 0 0 0 1 1 1
0 0 0 0 0 0 0 0 0 0 0 0 1 1 1 3 6 7 8 10 9 7 7 6 6 3 1 1 1 1 2 2 2 1 2 2 1 0 0 0 0 0 0 0 0 1 1 0 0
0 0 1 0 0 0 0 0 0 0 0 0 0 1 2 3 5 7 9 10 9 8 7 6 6 4 1 0 0 0 1 1 2 2 2 2 1 0 0 0 0 0 0 0 0 0 0 0 0
0 0 1 0 0 0 0 0 0 0 0 0 0 1 2 4 5 7 9 9 10 9 7 6 6 4 1 0 0 0 0 0 1 2 3 2 1 0 0 0 0 0 0 0 0 0 0 0 0
Wind_Speed
9 10 6 2 2 1 5 6 7 6 7 9 9 9 10 11 8 7 1 3 6 6 6 7 9 10 10 11 11 11 12 12 12 12 12 12 12 12 12 12 12 12 12 12 12 12 11 11 11
9 6 3 2 1 3 5 6 9 8 6 5 8 9 10 10 9 7 3 4 7 8 9 9 11 10 11 11 11 11 12 12 12 12 12 13 13 13 12 12 13 13 12 12 12 11 11 11 10
11 7 3 1 3 4 6 8 8 7 6 6 7 8 8 7 8 5 3 5 8 9 10 10 11 11 11 11 11 11 12 12 12 13 13 13 13 13 13 13 13 13 13 12 12 12 11 11 10
5 3 2 2 7 7 7 7 7 7 6 7 7 8 8 8 6 5 5 6 8 9 10 9 11 11 11 11 10 10 12 13 13 13 13 13 13 13 13 13 13 13 12 12 11 11 11 10 10
3 2 1 4 6 6 6 6 6 7 7 8 9 9 9 8 8 7 5 6 7 9 9 9 11 11 11 12 12 12 13 13 13 13 13 13 13 13 13 13 12 12 12 12 11 11 11 10 10
2 2 2 4 6 5 5 5 6 8 8 8 9 7 7 7 7 5 5 5 7 8 9 8 10 11 12 13 14 14 13 13 13 13 13 13 13 13 13 12 12 11 11 11 11 11 10 9 9
3 1 2 5 5 5 6 5 7 7 7 6 6 6 7 7 4 4 5 6 7 7 7 7 7 8 11 12 13 13 12 12 12 12 12 12 12 12 12 12 12 12 12 11 10 10 9 9 8
2 0 3 3 5 5 6 6 7 6 6 5 4 5 6 6 5 4 5 6 6 6 6 6 6 7 6 7 10 11 10 10 10 9 10 10 10 11 11 11 11 11 11 10 10 9 8 7 7
2 0 2 3 4 5 6 6 7 7 7 7 8 9 9 9 7 5 4 5 6 6 5 5 6 5 6 6 7 7 7 6 6 6 7 6 4 5 6 9 9 9 9 9 7 7 6 5 5
1 1 3 4 5 6 6 5 6 6 7 7 9 10 10 8 7 6 5 6 6 5 5 5 5 5 5 5 4 2 3 3 2 3 4 3 3 4 6 7 7 7 6 6 4 4 4 3 2
2 3 4 5 7 7 5 5 5 5 5 6 8 10 8 7 6 6 6 5 5 5 5 5 5 4 5 3 3 2 2 2 2 3 4 3 3 3 3 2 3 3 3 2 2 2 2 2 3
4 4 4 5 5 5 5 4 4 6 5 7 9 9 8 7 6 5 5 6 6 5 5 5 5 4 5 4 3 2 2 2 2 3 5 3 2 2 2 2 2 2 1 2 2 2 3 4 5
4 4 4 5 3 4 5 4 4 6 7 7 9 9 7 6 6 5 5 6 6 5 5 5 4 4 5 4 3 4 3 3 3 3 3 4 3 3 3 2 2 3 2 2 3 3 4 5 5
3 5 5 5 4 3 4 3 3 5 8 8 8 7 6 6 5 5 5 5 5 5 5 4 5 5 5 4 3 3 3 3 3 3 4 4 3 3 3 3 3 3 3 3 3 4 4 4 3
5 5 4 4 5 4 3 3 4 7 8 8 8 7 6 6 5 5 5 5 5 5 5 5 5 5 5 4 4 4 3 4 3 3 4 4 4 4 3 3 3 3 3 3 3 3 3 3 3
6 5 4 5 5 5 4 3 5 7 8 7 7 7 6 5 5 5 5 5 5 5 6 5 5 5 5 4 4 3 4 4 3 3 3 4 5 4 4 3 3 3 3 3 3 3 3 3 3
6 5 5 6 6 5 5 3 6 8 7 6 6 8 7 6 5 5 5 4 5 6 6 5 5 5 4 4 4 4 4 3 3 3 3 4 4 4 4 3 3 4 3 3 3 3 3 3 3
5 5 5 5 5 5 5 4 6 8 8 7 7 7 8 7 6 5 5 4 5 5 6 6 5 5 4 3 3 3 3 3 2 2 3 3 3 4 3 2 3 4 3 3 3 4 3 2 2
6 6 4 2 4 3 6 5 6 7 6 6 6 8 8 8 8 6 6 5 5 5 5 5 5 4 4 2 2 2 2 2 2 2 3 3 3 3 3 3 3 3 3 3 3 3 4 3 2
5 4 3 3 5 4 4 5 6 8 8 6 5 5 6 8 8 7 6 5 5 5 5 5 5 5 4 2 2 2 2 2 2 2 2 3 3 3 3 3 3 3 3 3 3 3 2 2 2
6 4 5 4 4 5 4 5 6 7 7 6 5 4 5 7 7 7 6 5 4 5 5 4 5 5 5 4 2 2 2 2 2 2 2 2 2 3 2 2 3 2 2 2 2 2 2 2 2
5 3 5 5 4 4 5 3 4 7 8 7 5 4 4 6 6 7 6 5 4 4 4 5 5 5 5 4 3 3 2 2 1 1 1 1 2 3 2 2 2 2 2 2 2 2 2 2 2
5 4 6 7 6 6 7 6 4 7 7 7 7 5 4 5 6 7 7 6 5 4 4 4 5 5 4 4 3 2 2 1 1 1 2 1 2 3 3 2 2 2 2 1 2 2 2 2 2
4 6 8 8 5 7 8 6 3 4 7 7 7 6 5 6 6 6 6 6 5 5 3 3 4 4 4 4 3 3 2 2 2 2 2 1 2 2 2 2 2 2 1 1 1 1 2 2 2
4 4 3 4 5 5 4 4 1 4 5 5 6 5 4 5 6 6 6 6 6 5 4 3 4 4 4 3 3 3 2 2 2 1 1 1 1 1 1 2 2 1 1 1 1 1 1 1 1
6 6 5 4 4 3 4 3 4 6 7 6 6 6 5 5 5 5 5 6 6 6 5 4 4 4 4 3 2 2 2 1 1 1 1 1 1 0 1 1 1 1 2 2 1 1 1 1 1
6 6 7 6 7 5 3 4 5 5 7 6 7 6 5 5 5 4 4 5 6 6 5 4 4 4 3 3 2 2 2 2 2 1 1 1 1 1 1 1 1 1 1 1 1 1 1 1 1
6 6 4 3 4 4 4 3 4 5 5 5 6 5 4 4 4 4 4 5 5 5 4 4 4 4 3 3 2 2 2 2 2 1 1 1 1 1 1 1 1 1 1 1 1 1 1 1 1
5 6 5 4 5 3 2 1 3 5 5 5 4 5 4 4 4 4 4 4 4 4 4 3 3 3 3 2 3 2 2 1 1 1 1 0 1 1 0 1 1 1 1 1 1 1 1 2 2
4 5 5 4 4 4 3 0 3 6 6 5 4 3 4 3 3 4 4 4 4 4 3 3 3 3 3 2 2 2 2 2 1 1 1 1 1 1 1 1 1 1 1 1 1 1 2 2 2
Wind_Direction
273 254 244 254 265 102 72 69 67 59 56 52 49 60 59 46 50 81 95 43 64 67 73 77 67 59 55 53 53 55 57 57 59 60 63 66 66 66 68 70 71 71 70 70 72 73 72 71 71
278 276 274 243 261 100 85 80 71 66 70 73 64 63 66 66 72 87 68 50 64 65 70 76 74 65 61 56 55 57 61 61 64 65 67 69 68 66 66 67 68 69 70 70 72 73 70 68 67
266 265 266 263 47 67 88 83 85 81 77 75 76 60 53 62 70 75 77 68 68 70 74 78 74 69 64 59 59 63 67 67 68 69 71 71 68 67 66 66 66 67 67 67 69 70 68 65 63
268 262 242 67 75 68 88 97 103 97 84 71 77 72 68 55 70 92 91 83 82 82 82 81 76 71 65 59 60 73 74 72 72 72 74 73 70 69 67 66 66 68 68 67 66 67 66 62 60
252 255 130 91 89 85 85 94 92 86 80 78 80 87 83 75 86 90 82 84 89 92 92 88 80 73 67 61 67 77 79 74 74 75 76 76 74 70 69 67 66 67 67 66 65 65 64 60 57
267 261 133 110 100 101 100 96 96 92 87 89 97 95 91 95 87 89 87 82 85 94 99 98 88 81 73 68 70 78 78 76 75 75 76 77 78 74 70 68 67 66 66 66 65 63 61 59 56
272 310 106 114 108 98 95 92 88 86 77 72 97 101 110 100 94 102 95 86 85 90 99 108 106 91 81 76 76 78 79 79 79 78 78 78 80 78 73 69 68 66 65 66 65 63 61 58 57
288 334 117 118 115 100 91 93 90 87 78 73 84 99 119 126 136 121 104 97 89 88 93 103 108 108 103 91 86 85 85 86 88 85 84 83 83 80 78 73 70 69 67 67 67 64 60 55 53
272 180 116 116 118 116 114 107 101 100 95 79 69 89 115 131 133 117 103 92 84 84 81 83 89 94 101 102 102 102 97 95 99 95 87 82 80 85 82 81 75 73 72 70 70 68 62 58 55
175 111 101 103 117 119 119 111 120 117 107 102 96 102 119 131 130 121 105 92 84 78 76 74 77 85 85 88 99 107 99 99 90 95 94 77 78 79 83 90 87 81 79 75 64 59 50 43 49
114 117 94 90 107 119 113 111 113 118 105 112 120 123 129 131 122 112 104 99 91 84 74 76 69 76 81 81 82 66 66 71 62 71 85 81 76 83 87 95 89 71 63 53 50 41 39 42 49
131 112 110 104 106 115 110 97 85 91 91 104 116 128 134 126 117 111 103 95 91 85 76 72 69 70 72 71 72 66 62 57 52 49 61 62 59 55 57 69 71 64 53 46 38 41 46 49 48
137 129 118 113 117 120 114 113 97 96 105 111 122 128 134 129 122 117 112 107 101 96 83 74 73 73 74 69 69 72 61 54 56 40 47 60 59 52 50 48 53 46 46 46 38 42 48 44 41
151 141 140 141 140 139 135 133 136 132 129 131 132 134 137 124 123 118 118 111 105 99 93 81 75 74 78 75 67 66 65 62 56 42 46 58 58 52 44 48 46 43 39 39 44 46 52 48 41
166 163 161 179 173 160 159 172 176 149 143 144 143 140 137 131 133 128 123 115 111 112 105 94 89 80 74 69 69 74 65 62 54 41 42 58 62 51 43 45 48 42 36 39 45 46 49 55 45
198 197 186 195 186 182 219 198 162 154 158 159 155 147 145 143 143 132 129 122 121 118 106 101 94 85 75 70 68 72 69 60 53 40 33 48 55 58 53 41 38 41 38 37 39 50 44 42 40
211 206 200 196 197 189 210 201 160 166 169 169 167 157 157 157 153 142 132 125 121 120 117 109 94 93 84 80 75 67 71 66 60 46 34 42 48 50 56 49 39 41 42 34 30 40 45 51 36
213 216 216 198 188 201 208 203 176 176 183 182 176 172 166 164 160 147 135 124 114 117 118 113 107 102 98 81 83 72 68 64 59 51 41 46 54 54 55 57 47 45 50 38 35 41 32 41 21
242 242 244 213 160 202 220 205 189 178 187 189 185 181 175 167 159 149 142 134 127 122 122 124 123 113 102 86 80 85 80 73 58 50 42 46 58 60 57 51 52 50 55 49 44 43 30 29 22
251 254 245 212 176 206 228 227 197 183 188 194 189 180 173 165 159 149 146 137 136 135 135 132 125 118 108 95 92 99 97 91 86 58 39 42 53 59 57 52 57 56 53 47 42 44 33 7 14
242 248 255 239 208 218 234 236 204 181 178 183 181 176 170 162 159 152 149 146 143 143 144 138 130 123 114 106 90 78 68 61 68 60 40 27 42 63 60 48 58 63 62 58 36 41 41 7 347
252 238 260 251 237 232 222 244 202 180 174 182 182 179 173 157 153 149 145 146 151 151 144 142 138 128 122 121 111 106 99 88 84 80 61 13 35 44 52 55 58 56 60 63 28 46 22 23 354
270 266 261 259 252 254 240 245 219 175 177 184 181 179 170 155 151 149 148 152 150 138 136 143 138 133 134 127 126 128 110 103 88 77 80 48 37 35 29 29 47 50 51 55 35 38 22 17 6
268 266 254 247 245 247 235 237 217 186 181 180 173 166 158 155 145 145 146 144 135 127 127 136 132 126 125 128 131 130 111 96 84 68 62 41 42 27 25 25 29 37 41 42 43 42 27 15 6
240 253 244 222 215 230 211 223 155 108 130 132 140 147 145 143 149 151 150 143 138 136 138 133 129 131 133 140 136 128 124 121 111 96 86 60 47 16 9 38 25 13 6 43 58 43 18 9 7
231 238 251 259 255 253 219 211 119 112 105 104 114 125 126 125 126 134 146 144 143 141 141 144 143 139 141 157 147 131 122 115 105 105 95 80 64 17 3 45 35 19 11 17 48 40 5 13 5
243 245 261 280 288 273 211 145 117 113 116 116 113 114 120 118 120 124 125 130 139 143 150 153 146 145 152 164 149 136 126 119 113 100 87 78 62 13 19 24 27 33 26 20 39 30 348 1 353
252 274 268 255 270 268 256 200 152 148 136 124 119 119 118 112 119 127 124 122 124 135 145 147 151 151 153 162 153 130 129 118 111 110 102 98 56 38 14 28 20 20 24 18 35 27 340 354 338
224 242 258 262 260 277 281 57 70 140 132 131 134 128 121 120 121 123 121 123 122 127 134 138 144 144 149 154 144 133 131 116 107 113 117 126 103 80 51 60 39 33 21 18 47 13 349 349 344
243 257 254 253 268 273 281 132 73 104 115 117 114 118 115 109 116 119 123 127 130 130 137 143 138 132 126 128 129 134 137 133 125 126 117 103 88 67 46 52 33 40 45 42 59 4 354 352 344